| time (UTC) | temp C | wind direction | speed KPH | gust KPH | rain 1hr cm | rain 24hr cm | rain mn cm | humidity % | barometer mb |
| 20260906095338 | 12 | 28 | 0.0 | 1.6 | 0.00 | 0.03 | 0.00 | 88 | 1015.2 |
| 20260906094834 | 12 | 28 | 1.6 | 3.2 | 0.00 | 0.03 | 0.00 | 88 | 1015.2 |
| 20260906094332 | 12 | 28 | 1.6 | 4.8 | 0.00 | 0.03 | 0.00 | 88 | 1015.2 |
| 20260906094110 | 12 | 9 | 3.2 | 4.8 | 0.00 | 0.03 | 0.00 | 88 | 1015.1 |
| 20260906093318 | 12 | 359 | 3.2 | 4.8 | 0.00 | 0.03 | 0.00 | 88 | 1015.1 |
| 20260906092818 | 12 | 9 | 1.6 | 4.8 | 0.00 | 0.03 | 0.00 | 88 | 1015.1 |
| 20260906092316 | 12 | 348 | 1.6 | 4.8 | 0.00 | 0.03 | 0.00 | 88 | 1015.5 |
| 20260906091808 | 12 | 253 | 1.6 | 4.8 | 0.00 | 0.03 | 0.00 | 88 | 1015.5 |
| 20260906091603 | 12 | 244 | 0.0 | 3.2 | 0.00 | 0.03 | 0.00 | 87 | 1015.5 |
| 20260906090807 | 12 | 245 | 0.0 | 3.2 | 0.00 | 0.03 | 0.00 | 87 | 1015.5 |
| 20260906090545 | 12 | 129 | 0.0 | 0.0 | 0.00 | 0.03 | 0.00 | 86 | 1015.5 |
| 20260906085802 | 12 | 129 | 0.0 | 1.6 | 0.00 | 0.03 | 0.00 | 85 | 1015.5 |
| 20260906085307 | 12 | 129 | 0.0 | 3.2 | 0.00 | 0.03 | 0.00 | 85 | 1015.5 |
| 20260906084755 | 12 | 129 | 1.6 | 3.2 | 0.00 | 0.03 | 0.00 | 85 | 1015.5 |
| 20260906084250 | 12 | 129 | 0.0 | 3.2 | 0.00 | 0.03 | 0.00 | 85 | 1015.5 |
| 20260906083753 | 12 | 48 | 0.0 | 1.6 | 0.00 | 0.03 | 0.00 | 85 | 1015.4 |
| 20260906083246 | 12 | 48 | 0.0 | 0.0 | 0.00 | 0.03 | 0.00 | 85 | 1015.4 |
| 20260906082745 | 12 | 48 | 0.0 | 1.6 | 0.00 | 0.03 | 0.00 | 85 | 1015.4 |
| 20260906082238 | 12 | 48 | 1.6 | 3.2 | 0.00 | 0.03 | 0.00 | 85 | 1015.4 |
| 20260906081737 | 12 | 48 | 1.6 | 3.2 | 0.00 | 0.03 | 0.00 | 85 | 1015.4 |
| 20260906081523 | 12 | 359 | 0.0 | 1.6 | 0.00 | 0.03 | 0.00 | 85 | 1015.4 |
| 20260906081023 | 12 | 355 | 0.0 | 1.6 | 0.00 | 0.03 | 0.00 | 85 | 1015.4 |
| 20260906080231 | 12 | 355 | 0.0 | 1.6 | 0.00 | 0.03 | 0.00 | 85 | 1015.4 |
| 20260906075730 | 12 | 355 | 0.0 | 1.6 | 0.00 | 0.03 | 0.00 | 85 | 1015.4 |
| 20260906075231 | 12 | 355 | 0.0 | 3.2 | 0.00 | 0.03 | 0.00 | 84 | 1015.5 |
| 20260906074728 | 12 | 355 | 0.0 | 3.2 | 0.00 | 0.03 | 0.00 | 84 | 1015.5 |
| 20260906074230 | 12 | 359 | 0.0 | 1.6 | 0.00 | 0.03 | 0.00 | 84 | 1015.5 |
| 20260906073707 | 12 | 359 | 0.0 | 1.6 | 0.00 | 0.03 | 0.00 | 85 | 1015.5 |
| 20260906073209 | 12 | 359 | 0.0 | 3.2 | 0.00 | 0.03 | 0.00 | 85 | 1015.5 |
| 20260906072654 | 12 | 359 | 0.0 | 3.2 | 0.00 | 0.03 | 0.00 | 85 | 1015.5 |
| 20260906072147 | 12 | 359 | 0.0 | 1.6 | 0.00 | 0.03 | 0.00 | 85 | 1015.5 |
| 20260906071917 | 12 | 359 | 0.0 | 0.0 | 0.00 | 0.03 | 0.00 | 84 | 1015.5 |
| 20260906071129 | 12 | 359 | 0.0 | 1.6 | 0.00 | 0.03 | 0.00 | 84 | 1015.6 |
| 20260906070913 | 12 | 359 | 1.6 | 3.2 | 0.00 | 0.03 | 0.00 | 84 | 1015.6 |
| 20260906070132 | 13 | 359 | 1.6 | 3.2 | 0.00 | 0.03 | 0.00 | 84 | 1015.6 |
| 20260906065631 | 13 | 359 | 0.0 | 1.6 | 0.00 | 0.03 | 0.03 | 84 | 1015.6 |
| 20260906065133 | 13 | 359 | 0.0 | 0.0 | 0.00 | 0.03 | 0.03 | 83 | 1015.6 |
| 20260906064634 | 13 | 359 | 0.0 | 1.6 | 0.00 | 0.03 | 0.03 | 83 | 1015.6 |
| 20260906064110 | 13 | 359 | 1.6 | 3.2 | 0.00 | 0.03 | 0.03 | 83 | 1015.6 |
| 20260906063900 | 13 | 359 | 1.6 | 4.8 | 0.00 | 0.03 | 0.03 | 83 | 1015.6 |
| 20260906063103 | 13 | 359 | 1.6 | 4.8 | 0.00 | 0.03 | 0.03 | 83 | 1015.6 |
| 20260906062600 | 13 | 13 | 1.6 | 4.8 | 0.00 | 0.03 | 0.03 | 84 | 1015.7 |
| 20260906062100 | 13 | 22 | 0.0 | 1.6 | 0.00 | 0.03 | 0.03 | 83 | 1015.7 |
| 20260906061600 | 13 | 22 | 0.0 | 3.2 | 0.00 | 0.03 | 0.03 | 83 | 1015.7 |
| 20260906061054 | 13 | 22 | 1.6 | 4.8 | 0.00 | 0.03 | 0.03 | 83 | 1015.7 |
| 20260906060548 | 13 | 22 | 3.2 | 8.0 | 0.00 | 0.03 | 0.03 | 82 | 1015.7 |
| 20260906060032 | 13 | 359 | 4.8 | 9.7 | 0.00 | 0.03 | 0.03 | 82 | 1015.7 |
| 20260906055532 | 13 | 9 | 3.2 | 9.7 | 0.00 | 0.03 | 0.03 | 80 | 1015.5 |
| 20260906055326 | 13 | 249 | 0.0 | 1.6 | 0.00 | 0.03 | 0.03 | 80 | 1015.5 |
| 20260906054544 | 13 | 249 | 0.0 | 1.6 | 0.00 | 0.03 | 0.03 | 80 | 1015.5 |
| 20260906054029 | 13 | 249 | 1.6 | 1.6 | 0.00 | 0.03 | 0.03 | 80 | 1015.6 |
| 20260906053530 | 13 | 249 | 0.0 | 1.6 | 0.00 | 0.03 | 0.03 | 80 | 1015.6 |
| 20260906053028 | 14 | 238 | 0.0 | 1.6 | 0.00 | 0.03 | 0.03 | 79 | 1015.6 |
| 20260906052819 | 14 | 238 | 0.0 | 0.0 | 0.00 | 0.03 | 0.03 | 78 | 1015.8 |
| 20260906052034 | 14 | 238 | 0.0 | 1.6 | 0.00 | 0.03 | 0.03 | 77 | 1015.8 |
| 20260906051529 | 14 | 238 | 1.6 | 3.2 | 0.00 | 0.03 | 0.03 | 77 | 1015.8 |
| 20260906051032 | 14 | 238 | 3.2 | 4.8 | 0.00 | 0.03 | 0.03 | 77 | 1015.8 |
| 20260906050818 | 14 | 236 | 3.2 | 4.8 | 0.00 | 0.03 | 0.03 | 77 | 1015.8 |
| 20260906050009 | 15 | 220 | 1.6 | 4.8 | 0.00 | 0.03 | 0.03 | 77 | 1015.8 |
| 20260906045504 | 14 | 239 | 0.0 | 3.2 | 0.00 | 0.03 | 0.03 | 77 | 1015.9 |
| 20260906045021 | 15 | 221 | 0.0 | 1.6 | 0.00 | 0.03 | 0.03 | 76 | 1015.9 |
| 20260906044015 | 15 | 221 | 0.0 | 1.6 | 0.00 | 0.03 | 0.03 | 74 | 1015.8 |
| 20260906043445 | 15 | 221 | 1.6 | 3.2 | 0.00 | 0.03 | 0.03 | 75 | 1015.8 |
| 20260906042936 | 15 | 221 | 1.6 | 3.2 | 0.00 | 0.03 | 0.03 | 74 | 1015.8 |
| 20260906042438 | 15 | 217 | 1.6 | 3.2 | 0.00 | 0.03 | 0.03 | 74 | 1015.9 |
| 20260906041928 | 15 | 217 | 1.6 | 4.8 | 0.00 | 0.03 | 0.03 | 73 | 1015.9 |
| 20260906041429 | 15 | 218 | 1.6 | 4.8 | 0.00 | 0.03 | 0.03 | 73 | 1015.9 |
| 20260906040942 | 15 | 349 | 0.0 | 1.6 | 0.00 | 0.03 | 0.03 | 71 | 1015.7 |
| 20260906035902 | 15 | 349 | 1.6 | 3.2 | 0.00 | 0.03 | 0.03 | 70 | 1015.7 |
| 20260906035403 | 16 | 344 | 1.6 | 3.2 | 0.00 | 0.03 | 0.03 | 69 | 1015.7 |
| 20260906034907 | 16 | 221 | 0.0 | 1.6 | 0.00 | 0.03 | 0.03 | 69 | 1015.7 |
| 20260906034417 | 16 | 209 | 1.6 | 3.2 | 0.00 | 0.03 | 0.03 | 68 | 1015.7 |
| 20260906033849 | 16 | 209 | 1.6 | 3.2 | 0.00 | 0.03 | 0.03 | 67 | 1015.6 |
| 20260906033343 | 16 | 290 | 1.6 | 3.2 | 0.00 | 0.03 | 0.03 | 66 | 1015.6 |
| 20260906032839 | 16 | 280 | 0.0 | 3.2 | 0.00 | 0.03 | 0.03 | 67 | 1015.6 |
| 20260906032337 | 16 | 58 | 1.6 | 3.2 | 0.00 | 0.03 | 0.03 | 62 | 1015.5 |
| 20260906031836 | 16 | 58 | 1.6 | 4.8 | 0.00 | 0.03 | 0.03 | 62 | 1015.5 |
| 20260906031631 | 17 | 4 | 1.6 | 4.8 | 0.00 | 0.03 | 0.03 | 62 | 1015.5 |
| 20260906030836 | 17 | 288 | 1.6 | 3.2 | 0.00 | 0.03 | 0.03 | 59 | 1015.5 |
| 20260906030338 | 17 | 288 | 1.6 | 4.8 | 0.00 | 0.03 | 0.03 | 59 | 1015.5 |
| 20260906025924 | 17 | 288 | 1.6 | 4.8 | 0.00 | 0.03 | 0.03 | 59 | 1015.5 |
| 20260906024832 | 18 | 73 | 3.2 | 4.8 | 0.00 | 0.05 | 0.03 | 56 | 1015.5 |
| 20260906024335 | 18 | 321 | 4.8 | 6.4 | 0.00 | 0.08 | 0.03 | 55 | 1015.5 |
| 20260906023817 | 18 | 300 | 3.2 | 6.4 | 0.00 | 0.08 | 0.03 | 54 | 1015.5 |
| 20260906023316 | 18 | 296 | 1.6 | 4.8 | 0.00 | 0.08 | 0.03 | 55 | 1015.5 |
| 20260906022824 | 18 | 265 | 1.6 | 4.8 | 0.00 | 0.10 | 0.03 | 56 | 1015.5 |
| 20260906022555 | 18 | 346 | 0.0 | 1.6 | 0.00 | 0.10 | 0.03 | 56 | 1015.4 |
| 20260906021804 | 18 | 346 | 0.0 | 3.2 | 0.00 | 0.10 | 0.03 | 55 | 1015.4 |
| 20260906021306 | 18 | 346 | 1.6 | 4.8 | 0.00 | 0.10 | 0.03 | 55 | 1015.4 |
| 20260906020808 | 18 | 346 | 3.2 | 4.8 | 0.00 | 0.10 | 0.03 | 55 | 1015.5 |
| 20260906020310 | 18 | 359 | 3.2 | 4.8 | 0.00 | 0.10 | 0.03 | 51 | 1015.5 |
| 20260906015806 | 18 | 9 | 1.6 | 4.8 | 0.00 | 0.10 | 0.03 | 51 | 1015.5 |
| 20260906015307 | 19 | 21 | 1.6 | 3.2 | 0.00 | 0.10 | 0.03 | 51 | 1015.5 |
| 20260906014755 | 19 | 4 | 3.2 | 4.8 | 0.00 | 0.10 | 0.03 | 49 | 1015.5 |
| 20260906014558 | 19 | 4 | 3.2 | 6.4 | 0.00 | 0.10 | 0.03 | 48 | 1015.5 |
| 20260906013741 | 19 | 359 | 3.2 | 6.4 | 0.00 | 0.10 | 0.03 | 50 | 1015.5 |
| 20260906013238 | 19 | 355 | 3.2 | 6.4 | 0.00 | 0.10 | 0.03 | 49 | 1015.5 |
| 20260906012732 | 19 | 359 | 4.8 | 8.0 | 0.00 | 0.10 | 0.03 | 50 | 1015.5 |
| 20260906012226 | 20 | 9 | 6.4 | 9.7 | 0.00 | 0.10 | 0.03 | 52 | 1015.4 |
| 20260906011723 | 20 | 20 | 6.4 | 9.7 | 0.00 | 0.10 | 0.03 | 50 | 1015.4 |
| 20260906011217 | 20 | 359 | 4.8 | 8.0 | 0.00 | 0.10 | 0.03 | 49 | 1015.4 |
| 20260906010717 | 20 | 348 | 4.8 | 6.4 | 0.00 | 0.10 | 0.03 | 43 | 1015.3 |
| 20260906010218 | 20 | 331 | 4.8 | 8.0 | 0.00 | 0.10 | 0.03 | 42 | 1015.3 |
| 20260906005712 | 20 | 329 | 4.8 | 8.0 | 0.00 | 0.10 | 0.03 | 42 | 1015.3 |
| 20260906005213 | 20 | 323 | 4.8 | 6.4 | 0.00 | 0.10 | 0.03 | 43 | 1015.2 |
| 20260906004712 | 20 | 331 | 4.8 | 6.4 | 0.00 | 0.10 | 0.03 | 42 | 1015.2 |
| 20260906004209 | 20 | 333 | 6.4 | 8.0 | 0.00 | 0.10 | 0.03 | 44 | 1015.2 |
| 20260906003710 | 20 | 359 | 4.8 | 8.0 | 0.00 | 0.10 | 0.03 | 45 | 1015.3 |
| 20260906003211 | 20 | 334 | 3.2 | 6.4 | 0.00 | 0.10 | 0.03 | 45 | 1015.3 |
| 20260906002712 | 20 | 335 | 3.2 | 6.4 | 0.00 | 0.10 | 0.03 | 44 | 1015.3 |
| 20260906002212 | 20 | 46 | 4.8 | 8.0 | 0.00 | 0.10 | 0.03 | 48 | 1015.3 |
| 20260906001711 | 20 | 4 | 6.4 | 9.7 | 0.00 | 0.10 | 0.03 | 50 | 1015.3 |
| 20260906001205 | 20 | 4 | 6.4 | 9.7 | 0.00 | 0.10 | 0.03 | 50 | 1015.3 |
| 20260906000705 | 20 | 359 | 8.0 | 14.5 | 0.00 | 0.10 | 0.03 | 51 | 1015.2 |
| 20260906000204 | 20 | 9 | 8.0 | 14.5 | 0.00 | 0.10 | 0.03 | 52 | 1015.2 |
| 20260905235955 | 20 | 30 | 9.7 | 17.7 | 0.00 | 0.10 | 0.03 | 51 | 1015.2 |
| 20260905235204 | 20 | 344 | 11.3 | 20.9 | 0.00 | 0.10 | 0.03 | 55 | 1015.3 |
| 20260905234954 | 20 | 359 | 12.9 | 20.9 | 0.00 | 0.10 | 0.03 | 55 | 1015.3 |
| 20260905234209 | 20 | 4 | 12.9 | 17.7 | 0.00 | 0.10 | 0.03 | 57 | 1015.3 |
| 20260905233953 | 20 | 351 | 12.9 | 17.7 | 0.00 | 0.10 | 0.03 | 55 | 1015.3 |
| 20260905233202 | 20 | 9 | 9.7 | 16.1 | 0.00 | 0.10 | 0.03 | 53 | 1015.3 |
| 20260905232702 | 20 | 350 | 8.0 | 11.3 | 0.00 | 0.10 | 0.03 | 52 | 1015.3 |
| 20260905232200 | 20 | 21 | 8.0 | 11.3 | 0.00 | 0.10 | 0.03 | 50 | 1015.3 |
| 20260905231701 | 20 | 351 | 6.4 | 11.3 | 0.00 | 0.10 | 0.03 | 51 | 1015.3 |
| 20260905231203 | 20 | 30 | 6.4 | 9.7 | 0.00 | 0.10 | 0.03 | 51 | 1015.3 |
| 20260905230703 | 20 | 327 | 4.8 | 8.0 | 0.00 | 0.10 | 0.03 | 50 | 1015.4 |
| 20260905230503 | 20 | 334 | 3.2 | 6.4 | 0.00 | 0.10 | 0.03 | 52 | 1015.4 |
| 20260905225700 | 20 | 325 | 4.8 | 9.7 | 0.00 | 0.10 | 0.03 | 52 | 1015.4 |
| 20260905225457 | 20 | 332 | 6.4 | 11.3 | 0.00 | 0.10 | 0.03 | 54 | 1015.4 |
| 20260905224656 | 19 | 9 | 8.0 | 14.5 | 0.00 | 0.10 | 0.03 | 57 | 1015.4 |
| 20260905224147 | 19 | 30 | 9.7 | 16.1 | 0.00 | 0.10 | 0.03 | 56 | 1015.4 |
| 20260905223637 | 19 | 347 | 9.7 | 16.1 | 0.00 | 0.10 | 0.03 | 57 | 1015.5 |
| 20260905223139 | 19 | 333 | 6.4 | 14.5 | 0.00 | 0.10 | 0.03 | 59 | 1015.5 |
| 20260905222638 | 19 | 337 | 4.8 | 8.0 | 0.00 | 0.10 | 0.03 | 56 | 1015.7 |
| 20260905222140 | 19 | 9 | 4.8 | 8.0 | 0.00 | 0.10 | 0.03 | 56 | 1015.7 |
| 20260905221640 | 19 | 328 | 4.8 | 6.4 | 0.00 | 0.10 | 0.03 | 55 | 1015.7 |
| 20260905221446 | 19 | 319 | 4.8 | 8.0 | 0.00 | 0.10 | 0.03 | 56 | 1016.0 |
| 20260905220634 | 19 | 328 | 6.4 | 8.0 | 0.00 | 0.10 | 0.03 | 55 | 1016.0 |
| 20260905220134 | 19 | 341 | 6.4 | 8.0 | 0.00 | 0.10 | 0.03 | 55 | 1016.0 |
| 20260905215635 | 19 | 15 | 6.4 | 9.7 | 0.00 | 0.10 | 0.03 | 56 | 1016.0 |
| 20260905215132 | 19 | 35 | 6.4 | 9.7 | 0.00 | 0.10 | 0.03 | 60 | 1016.0 |
| 20260905214634 | 19 | 13 | 8.0 | 9.7 | 0.00 | 0.10 | 0.03 | 58 | 1016.0 |
| 20260905214120 | 19 | 15 | 8.0 | 9.7 | 0.00 | 0.10 | 0.03 | 56 | 1016.0 |
| 20260905213614 | 19 | 29 | 6.4 | 9.7 | 0.00 | 0.10 | 0.03 | 55 | 1016.0 |
| 20260905213112 | 19 | 9 | 6.4 | 8.0 | 0.00 | 0.10 | 0.03 | 55 | 1016.0 |
| 20260905212613 | 18 | 37 | 6.4 | 8.0 | 0.00 | 0.10 | 0.03 | 57 | 1016.1 |
| 20260905212114 | 18 | 18 | 6.4 | 8.0 | 0.00 | 0.10 | 0.03 | 57 | 1016.1 |
| 20260905211614 | 18 | 355 | 4.8 | 8.0 | 0.00 | 0.10 | 0.03 | 60 | 1016.1 |
| 20260905211423 | 18 | 348 | 4.8 | 9.7 | 0.00 | 0.10 | 0.03 | 60 | 1016.3 |
| 20260905210610 | 18 | 359 | 6.4 | 9.7 | 0.00 | 0.10 | 0.03 | 62 | 1016.3 |
| 20260905210420 | 18 | 9 | 3.2 | 9.7 | 0.00 | 0.10 | 0.03 | 61 | 1016.3 |
| 20260905205610 | 19 | 311 | 3.2 | 6.4 | 0.00 | 0.10 | 0.03 | 57 | 1016.4 |
| 20260905205105 | 18 | 250 | 4.8 | 8.0 | 0.00 | 0.10 | 0.03 | 56 | 1016.4 |
| 20260905204553 | 18 | 177 | 4.8 | 8.0 | 0.00 | 0.10 | 0.03 | 58 | 1016.4 |
| 20260905204041 | 18 | 232 | 3.2 | 6.4 | 0.00 | 0.10 | 0.03 | 57 | 1016.5 |
| 20260905203531 | 18 | 215 | 4.8 | 9.7 | 0.00 | 0.10 | 0.03 | 57 | 1016.5 |
| 20260905203030 | 18 | 213 | 4.8 | 9.7 | 0.00 | 0.10 | 0.03 | 59 | 1016.5 |
| 20260905202532 | 18 | 205 | 6.4 | 8.0 | 0.00 | 0.10 | 0.03 | 59 | 1016.6 |
| 20260905202031 | 18 | 215 | 6.4 | 11.3 | 0.00 | 0.10 | 0.03 | 59 | 1016.6 |
| 20260905201830 | 18 | 216 | 6.4 | 11.3 | 0.00 | 0.10 | 0.03 | 59 | 1016.6 |
| 20260905201031 | 18 | 249 | 6.4 | 9.7 | 0.00 | 0.10 | 0.03 | 59 | 1016.7 |
| 20260905200819 | 18 | 233 | 6.4 | 9.7 | 0.00 | 0.10 | 0.03 | 59 | 1016.7 |
| 20260905200331 | 18 | 237 | 6.4 | 9.7 | 0.00 | 0.10 | 0.03 | 59 | 1016.7 |
| 20260905195534 | 18 | 273 | 6.4 | 9.7 | 0.00 | 0.10 | 0.03 | 59 | 1016.9 |
| 20260905195026 | 18 | 273 | 6.4 | 9.7 | 0.00 | 0.10 | 0.03 | 60 | 1016.9 |
| 20260905194510 | 17 | 204 | 4.8 | 9.7 | 0.00 | 0.10 | 0.03 | 60 | 1016.9 |
| 20260905194012 | 17 | 250 | 4.8 | 8.0 | 0.00 | 0.10 | 0.03 | 60 | 1017.0 |
| 20260905193513 | 17 | 261 | 4.8 | 8.0 | 0.00 | 0.10 | 0.03 | 59 | 1017.0 |
| 20260905193008 | 17 | 254 | 4.8 | 8.0 | 0.00 | 0.10 | 0.03 | 62 | 1017.0 |
| 20260905192805 | 17 | 237 | 3.2 | 8.0 | 0.00 | 0.10 | 0.03 | 62 | 1017.1 |
| 20260905192008 | 17 | 219 | 3.2 | 6.4 | 0.00 | 0.10 | 0.03 | 62 | 1017.1 |
| 20260905191508 | 17 | 213 | 3.2 | 6.4 | 0.00 | 0.10 | 0.03 | 63 | 1017.1 |
| 20260905191009 | 17 | 242 | 1.6 | 6.4 | 0.00 | 0.10 | 0.03 | 66 | 1017.3 |
| 20260905190514 | 16 | 219 | 3.2 | 6.4 | 0.00 | 0.10 | 0.03 | 65 | 1017.3 |
| 20260905190010 | 16 | 176 | 3.2 | 6.4 | 0.00 | 0.10 | 0.03 | 67 | 1017.3 |
| 20260905185453 | 16 | 186 | 1.6 | 4.8 | 0.00 | 0.10 | 0.03 | 68 | 1017.4 |
| 20260905184938 | 16 | 139 | 1.6 | 4.8 | 0.00 | 0.10 | 0.03 | 71 | 1017.4 |
| 20260905184434 | 16 | 209 | 1.6 | 6.4 | 0.00 | 0.10 | 0.03 | 72 | 1017.4 |
| 20260905183936 | 15 | 283 | 3.2 | 8.0 | 0.00 | 0.10 | 0.03 | 73 | 1017.5 |
| 20260905183429 | 15 | 273 | 3.2 | 8.0 | 0.00 | 0.10 | 0.03 | 74 | 1017.5 |
| 20260905182930 | 15 | 214 | 3.2 | 6.4 | 0.00 | 0.10 | 0.03 | 77 | 1017.5 |
| 20260905182430 | 15 | 223 | 3.2 | 4.8 | 0.00 | 0.10 | 0.03 | 79 | 1017.6 |
| 20260905181934 | 14 | 261 | 3.2 | 6.4 | 0.00 | 0.10 | 0.03 | 80 | 1017.6 |
| 20260905181430 | 14 | 232 | 3.2 | 6.4 | 0.00 | 0.10 | 0.03 | 80 | 1017.6 |
| 20260905180933 | 14 | 269 | 3.2 | 6.4 | 0.00 | 0.10 | 0.03 | 81 | 1017.6 |
| 20260905180430 | 13 | 222 | 3.2 | 6.4 | 0.00 | 0.10 | 0.03 | 83 | 1017.6 |
| 20260905175920 | 13 | 211 | 3.2 | 6.4 | 0.00 | 0.10 | 0.03 | 84 | 1017.6 |
| 20260905175420 | 13 | 202 | 3.2 | 6.4 | 0.00 | 0.10 | 0.03 | 84 | 1017.6 |
| 20260905174928 | 13 | 194 | 3.2 | 6.4 | 0.00 | 0.10 | 0.03 | 84 | 1017.6 |
| 20260905174711 | 13 | 158 | 1.6 | 4.8 | 0.00 | 0.10 | 0.03 | 85 | 1017.6 |
| 20260905173919 | 13 | 205 | 3.2 | 4.8 | 0.00 | 0.10 | 0.03 | 85 | 1017.5 |
| 20260905173418 | 13 | 166 | 3.2 | 6.4 | 0.00 | 0.10 | 0.03 | 85 | 1017.5 |
| 20260905172916 | 13 | 225 | 3.2 | 6.4 | 0.00 | 0.10 | 0.03 | 85 | 1017.5 |
| 20260905172719 | 13 | 215 | 3.2 | 8.0 | 0.00 | 0.10 | 0.03 | 85 | 1017.5 |
| 20260905171914 | 13 | 240 | 4.8 | 8.0 | 0.00 | 0.10 | 0.03 | 86 | 1017.5 |
| 20260905171412 | 13 | 218 | 3.2 | 6.4 | 0.00 | 0.10 | 0.03 | 87 | 1017.5 |
| 20260905170913 | 13 | 205 | 3.2 | 6.4 | 0.00 | 0.10 | 0.03 | 87 | 1017.6 |
| 20260905170718 | 13 | 226 | 1.6 | 4.8 | 0.00 | 0.10 | 0.03 | 88 | 1017.6 |
| 20260905165900 | 12 | 223 | 1.6 | 3.2 | 0.00 | 0.10 | 0.03 | 88 | 1017.6 |
| 20260905165355 | 12 | 316 | 1.6 | 3.2 | 0.00 | 0.10 | 0.03 | 88 | 1017.5 |
| 20260905164850 | 12 | 323 | 0.0 | 1.6 | 0.00 | 0.10 | 0.03 | 89 | 1017.5 |
| 20260905164342 | 12 | 335 | 1.6 | 4.8 | 0.00 | 0.10 | 0.03 | 89 | 1017.5 |
| 20260905163835 | 12 | 335 | 1.6 | 4.8 | 0.00 | 0.10 | 0.03 | 89 | 1017.2 |
| 20260905163402 | 12 | 9 | 1.6 | 4.8 | 0.00 | 0.10 | 0.03 | 89 | 1017.2 |
| 20260905162331 | 12 | 343 | 4.8 | 8.0 | 0.00 | 0.10 | 0.03 | 89 | 1017.1 |
| 20260905161834 | 12 | 342 | 4.8 | 8.0 | 0.00 | 0.10 | 0.03 | 89 | 1017.1 |
| 20260905161631 | 12 | 344 | 3.2 | 6.4 | 0.00 | 0.10 | 0.03 | 89 | 1017.1 |
| 20260905160838 | 11 | 359 | 3.2 | 4.8 | 0.00 | 0.10 | 0.03 | 89 | 1017.1 |
| 20260905160329 | 11 | 28 | 3.2 | 4.8 | 0.00 | 0.10 | 0.03 | 89 | 1017.1 |
| 20260905155833 | 11 | 18 | 3.2 | 6.4 | 0.00 | 0.10 | 0.03 | 89 | 1017.1 |
| 20260905155330 | 11 | 342 | 1.6 | 6.4 | 0.00 | 0.10 | 0.03 | 89 | 1017.1 |
| 20260905154822 | 12 | 344 | 1.6 | 3.2 | 0.00 | 0.10 | 0.03 | 90 | 1017.1 |
| 20260905154616 | 12 | 13 | 1.6 | 3.2 | 0.00 | 0.10 | 0.03 | 90 | 1017.1 |
| 20260905153807 | 12 | 67 | 0.0 | 1.6 | 0.00 | 0.10 | 0.03 | 91 | 1017.1 |
| 20260905153601 | 11 | 92 | 0.0 | 1.6 | 0.00 | 0.10 | 0.03 | 91 | 1017.1 |
| 20260905152752 | 11 | 92 | 0.0 | 3.2 | 0.00 | 0.10 | 0.03 | 91 | 1017.1 |
| 20260905152250 | 11 | 92 | 0.0 | 3.2 | 0.00 | 0.10 | 0.03 | 92 | 1017.0 |
| 20260905151741 | 11 | 132 | 0.0 | 3.2 | 0.00 | 0.10 | 0.03 | 92 | 1017.0 |
| 20260905151305 | 11 | 209 | 1.6 | 4.8 | 0.00 | 0.10 | 0.03 | 92 | 1017.0 |
| 20260905150232 | 10 | 240 | 1.6 | 4.8 | 0.00 | 0.10 | 0.03 | 92 | 1017.0 |
| 20260905145729 | 10 | 221 | 1.6 | 4.8 | 0.00 | 0.10 | 0.03 | 92 | 1017.0 |
| 20260905145229 | 10 | 215 | 1.6 | 4.8 | 0.00 | 0.10 | 0.03 | 92 | 1017.0 |
| 20260905144730 | 10 | 215 | 1.6 | 4.8 | 0.00 | 0.10 | 0.03 | 92 | 1017.0 |
| 20260905144208 | 10 | 184 | 1.6 | 4.8 | 0.00 | 0.10 | 0.03 | 92 | 1017.0 |
| 20260905143709 | 10 | 217 | 3.2 | 6.4 | 0.00 | 0.10 | 0.03 | 92 | 1017.0 |
| 20260905143205 | 10 | 220 | 3.2 | 6.4 | 0.00 | 0.10 | 0.03 | 92 | 1017.0 |
| 20260905142701 | 10 | 174 | 3.2 | 8.0 | 0.00 | 0.10 | 0.03 | 92 | 1017.0 |
| 20260905142201 | 10 | 227 | 3.2 | 8.0 | 0.00 | 0.10 | 0.03 | 92 | 1017.0 |
| 20260905141702 | 10 | 205 | 3.2 | 6.4 | 0.00 | 0.10 | 0.03 | 92 | 1017.0 |
| 20260905141201 | 10 | 208 | 3.2 | 6.4 | 0.00 | 0.10 | 0.03 | 92 | 1017.0 |
| 20260905141003 | 10 | 221 | 1.6 | 4.8 | 0.00 | 0.10 | 0.03 | 92 | 1016.8 |
| 20260905140205 | 10 | 194 | 1.6 | 3.2 | 0.00 | 0.10 | 0.03 | 92 | 1016.8 |
| 20260905135708 | 10 | 207 | 1.6 | 4.8 | 0.00 | 0.10 | 0.03 | 92 | 1016.8 |
| 20260905135208 | 10 | 208 | 1.6 | 6.4 | 0.00 | 0.10 | 0.03 | 92 | 1016.6 |
| 20260905134941 | 10 | 226 | 1.6 | 6.4 | 0.00 | 0.10 | 0.03 | 92 | 1016.6 |
| 20260905134203 | 10 | 217 | 1.6 | 4.8 | 0.00 | 0.10 | 0.03 | 92 | 1016.6 |
| 20260905133705 | 10 | 210 | 1.6 | 3.2 | 0.00 | 0.10 | 0.03 | 92 | 1016.5 |
| 20260905133200 | 10 | 209 | 1.6 | 4.8 | 0.00 | 0.10 | 0.03 | 92 | 1016.5 |
| 20260905132701 | 10 | 221 | 1.6 | 4.8 | 0.00 | 0.10 | 0.03 | 92 | 1016.5 |
| 20260905132201 | 10 | 179 | 3.2 | 6.4 | 0.00 | 0.10 | 0.03 | 92 | 1016.5 |
| 20260905131704 | 10 | 169 | 3.2 | 6.4 | 0.00 | 0.10 | 0.03 | 92 | 1016.5 |
| 20260905131202 | 10 | 177 | 1.6 | 4.8 | 0.00 | 0.10 | 0.03 | 92 | 1016.5 |
| 20260905130702 | 10 | 198 | 1.6 | 4.8 | 0.00 | 0.10 | 0.03 | 92 | 1016.4 |
| 20260905130203 | 10 | 204 | 1.6 | 4.8 | 0.00 | 0.10 | 0.03 | 92 | 1016.4 |
| 20260905125700 | 10 | 196 | 0.0 | 3.2 | 0.00 | 0.10 | 0.03 | 92 | 1016.4 |
| 20260905125158 | 10 | 196 | 1.6 | 6.4 | 0.00 | 0.10 | 0.03 | 92 | 1016.5 |
| 20260905124656 | 10 | 196 | 3.2 | 6.4 | 0.00 | 0.10 | 0.03 | 92 | 1016.5 |
| 20260905124440 | 10 | 209 | 3.2 | 4.8 | 0.00 | 0.10 | 0.03 | 92 | 1016.5 |
| 20260905123646 | 10 | 157 | 1.6 | 4.8 | 0.00 | 0.10 | 0.03 | 92 | 1016.5 |
| 20260905123418 | 10 | 174 | 1.6 | 4.8 | 0.00 | 0.10 | 0.03 | 92 | 1016.5 |
| 20260905122642 | 10 | 175 | 1.6 | 4.8 | 0.00 | 0.10 | 0.03 | 92 | 1016.4 |
| 20260905122143 | 10 | 166 | 1.6 | 4.8 | 0.00 | 0.10 | 0.03 | 92 | 1016.4 |
| 20260905121636 | 10 | 155 | 3.2 | 4.8 | 0.00 | 0.10 | 0.03 | 92 | 1016.4 |
| 20260905121136 | 10 | 155 | 3.2 | 4.8 | 0.00 | 0.10 | 0.03 | 92 | 1016.3 |
| 20260905120636 | 10 | 165 | 1.6 | 4.8 | 0.00 | 0.10 | 0.03 | 92 | 1016.3 |
| 20260905120137 | 10 | 133 | 1.6 | 3.2 | 0.00 | 0.10 | 0.03 | 92 | 1016.3 |
| 20260905115632 | 10 | 89 | 0.0 | 3.2 | 0.00 | 0.10 | 0.03 | 92 | 1016.3 |
| 20260905115130 | 11 | 178 | 1.6 | 3.2 | 0.00 | 0.10 | 0.03 | 92 | 1016.3 |
| 20260905114629 | 11 | 178 | 1.6 | 4.8 | 0.00 | 0.10 | 0.03 | 92 | 1016.3 |
| 20260905114131 | 11 | 226 | 1.6 | 4.8 | 0.00 | 0.10 | 0.03 | 92 | 1016.3 |
| 20260905113632 | 11 | 204 | 1.6 | 4.8 | 0.00 | 0.10 | 0.03 | 92 | 1016.3 |
| 20260905113130 | 11 | 184 | 1.6 | 4.8 | 0.00 | 0.10 | 0.03 | 92 | 1016.3 |
| 20260905112632 | 11 | 156 | 1.6 | 4.8 | 0.00 | 0.10 | 0.03 | 92 | 1016.2 |
| 20260905112132 | 11 | 157 | 3.2 | 6.4 | 0.00 | 0.10 | 0.03 | 92 | 1016.2 |
| 20260905111623 | 11 | 178 | 3.2 | 4.8 | 0.03 | 0.10 | 0.03 | 92 | 1016.2 |
| 20260905111117 | 11 | 198 | 3.2 | 4.8 | 0.03 | 0.10 | 0.03 | 93 | 1016.2 |
| 20260905110605 | 11 | 169 | 3.2 | 4.8 | 0.03 | 0.10 | 0.03 | 92 | 1016.2 |
| 20260905110104 | 11 | 167 | 3.2 | 4.8 | 0.03 | 0.10 | 0.03 | 92 | 1016.2 |
| 20260905105602 | 11 | 154 | 1.6 | 3.2 | 0.03 | 0.10 | 0.03 | 92 | 1016.0 |
| 20260905105105 | 11 | 157 | 1.6 | 3.2 | 0.03 | 0.10 | 0.03 | 93 | 1016.0 |
| 20260905104604 | 11 | 170 | 1.6 | 3.2 | 0.03 | 0.10 | 0.03 | 93 | 1016.0 |
| 20260905104103 | 11 | 242 | 1.6 | 3.2 | 0.03 | 0.10 | 0.03 | 93 | 1016.0 |
| 20260905103553 | 11 | 242 | 1.6 | 3.2 | 0.03 | 0.10 | 0.03 | 93 | 1016.0 |
| 20260905103040 | 11 | 256 | 1.6 | 1.6 | 0.03 | 0.10 | 0.03 | 93 | 1016.0 |
| 20260905102539 | 11 | 256 | 1.6 | 4.8 | 0.03 | 0.10 | 0.03 | 93 | 1016.0 |
| 20260905102315 | 11 | 256 | 3.2 | 4.8 | 0.03 | 0.10 | 0.00 | 93 | 1016.0 |
| 20260905101535 | 11 | 246 | 3.2 | 4.8 | 0.00 | 0.08 | 0.00 | 93 | 1016.0 |
| 20260905101031 | 11 | 184 | 3.2 | 6.4 | 0.00 | 0.08 | 0.00 | 93 | 1015.9 |
| 20260905100531 | 11 | 210 | 4.8 | 6.4 | 0.00 | 0.08 | 0.00 | 93 | 1015.9 |
| 20260905100027 | 11 | 223 | 3.2 | 6.4 | 0.00 | 0.08 | 0.00 | 93 | 1015.9 |
| 20260905095824 | 11 | 219 | 1.6 | 4.8 | 0.00 | 0.08 | 0.00 | 93 | 1016.0 |